Weather History for Durango, Mexico

Change the Weather History Date:

Sunday, April 28, 2013

  Actual Average Record
Temperature  
Mean Temperature 71 °F -  
Max Temperature 91 °F 85 °F 95 °F (2012)
Min Temperature 51 °F 51 °F 30 °F (1997)
Cooling Degree Days 6    
Growing Degree Days 21 (Base 50)    
Moisture  
Dew Point 17 °F    
Average Humidity 15    
Maximum Humidity 41    
Minimum Humidity 4    
Precipitation  
Precipitation 0.00 in - - ()
Sea Level Pressure  
Sea Level Pressure 29.88 in    
Wind  
Wind Speed 7 mph ()    
Max Wind Speed 17 mph    
Max Gust Speed -    
Visibility 11.6 miles    
Events      
Averages and records for this station are not official NWS values.
T = Trace of Precipitation, MM = Missing Value Source: Averaged Metar Reports

Daily Weather History Graph

Daily Weather History Graph

Search for Another Location

Airport:

Trip Planner

Search our weather history database for the weather conditions in past years. The results will help you decide how hot, cold, wet, or windy it might be!

Date:

Astronomy

Apr. 28, 2013 Rise Set
Actual Time 7:25 AM CDT 8:25 PM CDT
Civil Twilight 7:01 AM CDT 8:49 PM CDT
Nautical Twilight 6:33 AM CDT 9:17 PM CDT
Astronomical Twilight 6:05 AM CDT 9:46 PM CDT
Moon 11:47 PM CDT 9:56 AM CDT
Length of Visible Light 13h 47m
Length of Day
13h 00m
Waning Gibbous, 88% of the Moon is Illuminated
Apr 28
Waning Gibbous
May 2
Last Quarter
May 9
New
May 17
First Quarter
May 24
Full

Hourly Weather History & Observations

Time (CDT) Temp. Dew Point Humidity Pressure Visibility Wind Dir Wind Speed Gust Speed Precip Events Conditions
12:50 AM 68 °F 37 °F 21% 29.63 in 6 mi WNW 4.5 mph - -  
3:50 AM 63 °F 35 °F 24% 29.67 in 6 mi WNW 4.5 mph - -  
6:04 AM 53.6 °F 26.6 °F 35% 30.12 in 10.0 mi SSW 9.2 mph - N/A   Clear
6:40 AM 51.8 °F 26.6 °F 38% 29.72 in 10.0 mi Calm Calm - N/A   Clear
6:50 AM 59 °F 35 °F 29% 29.73 in 6 mi WSW 4.5 mph - -  
7:40 AM 51.8 °F 28.4 °F 41% 30.14 in 12.0 mi SSW 6.9 mph - N/A   Clear
8:40 AM 59.0 °F 28.4 °F 31% 30.15 in 12.0 mi SSW 9.2 mph - N/A   Partly Cloudy
9:42 AM 66.2 °F 24.8 °F 21% 29.73 in 12.0 mi South 8.1 mph - N/A   Partly Cloudy
9:50 AM 65 °F 30 °F 16% 29.81 in 25 mi WSW 2.2 mph - -   Clear
10:43 AM 84.2 °F 15.8 °F 8% 30.14 in 14.0 mi South 9.2 mph - N/A   Partly Cloudy
11:41 AM 77.0 °F 5.0 °F 6% 30.12 in 14.0 mi SW 15.0 mph - N/A   Partly Cloudy
12:40 PM 78.8 °F 3.2 °F 5% 30.10 in 14.0 mi WSW 9.2 mph - N/A   Scattered Clouds
1:44 PM 80.6 °F -0.4 °F 4% 30.06 in 14.0 mi SSW 3.5 mph - N/A   Partly Cloudy
1:58 PM 83 °F 31 °F 8% 29.72 in 31 mi WNW 4.5 mph - -   Clear
2:41 PM 82.4 °F -2.2 °F 4% 30.03 in 14.0 mi SSW 15.0 mph - N/A   Clear
3:46 PM 82.4 °F -5.8 °F 4% 30.00 in 14.0 mi SSW 16.1 mph - N/A   Partly Cloudy
3:58 PM 85 °F 31 °F 7% 29.57 in 31 mi WNW 6.7 mph - -   Clear
4:44 PM 82.4 °F -5.8 °F 4% 29.97 in 14.0 mi WSW 12.7 mph - N/A   Scattered Clouds
5:45 PM 82.4 °F -5.8 °F 4% 29.95 in 14.0 mi SW 16.1 mph - N/A   Scattered Clouds
6:45 PM 80.6 °F -7.6 °F 4% 29.95 in 14.0 mi West 16.1 mph - N/A   Mostly Cloudy
6:57 PM 83 °F 34 °F 9% 29.44 in 31 mi WSW 11.2 mph - -   Clear
7:40 PM 78.8 °F 6.8 °F 6% 29.95 in 14.0 mi SW 17.3 mph - N/A   Mostly Cloudy
9:59 PM 73 °F 29 °F 10% 29.47 in 6 mi WSW 6.7 mph - -